Location: Koszewko
(53.2876°N, 14.9061°E)
Time: 00:53:40
(UTC+00:00)

Cosmos 1536 - Pass Details

Date: 03 March 2021
Orbit: 540 x 558 km, 82.5° (Epoch: 11 April)

Event Time Altitude Azimuth Distance (km) Brightness Sun altitude
Exits shadow 19:45:24 37° 337° (NNW) 872 4.1 -27.3°
Drops below altitude 10° 19:48:06 10° 2° (N) 1,825 5.8 -27.7°
Sets 19:50:19 0° 8° (N) 2,720 6.6 -28.0°
